[[{"header":{"parameterUnit":"m.s-1","parameterCategory":2,"la1":30.2991,"la2":30.254,"lo1":-89.0895,"lo2":-89.0444,"dy":0.0017,"dx":0.0017,"nx":28,"ny":28,"refTime":"2024-04-09T21:00:00:Z","depth":"0","parameterNumber":2,"parameterNumberName":"U-component_of_CURRENTS"},"data":[0,0,0,0,0,0,0,0,0,0,0,0,0,0,0,0,0,0,0,0,0,0,0,0,0,0,0,0,0,0,0,0,0,0,0,0,0,0,0,0,0,0,0,0,0,0,0,0,0,0,0,0,0,0,0,0,0,0,-0.1825,-0.1825,0,-0.1798,-0.1798,-0.1797,-0.1804,-0.1805,-0.1806,-0.1807,-0.176,-0.1758,-0.1756,0,0,0,0,0,0,0,0,0,0,0,0,0,-0.1778,-0.1779,-0.1825,-0.1825,-0.1825,-0.1799,-0.1798,-0.1797,-0.1804,-0.1805,-0.1806,-0.1807,-0.176,-0.1758,-0.1755,0,0,0,0,0,0,0,0,0,0,0,0,0,-0.1776,-0.178,-0.1825,-0.1828,-0.1829,-0.1799,-0.1798,-0.1797,-0.1804,-0.1805,-0.1806,-0.1808,-0.1761,-0.1758,-0.1755,-0.1708,0,0,-0.1745,-0.1744,0,0,0,0,0,0,0,0,-0.1776,-0.1777,-0.1828,-0.1828,-0.1828,-0.181,-0.1765,-0.1768,-0.1803,-0.1808,-0.1807,-0.1808,-0.1776,-0.1772,-0.1758,-0.1706,-0.1704,-0.1745,-0.1743,-0.1742,-0.1741,0,0,0,0,0,0,0,-0.1776,-0.1778,-0.181,-0.1828,-0.1828,-0.1796,-0.1798,-0.1764,-0.1781,-0.1808,-0.181,-0.1813,-0.1776,-0.1761,-0.1757,-0.1703,-0.1745,-0.1742,-0.1741,-0.1739,-0.159,-0.1588,0,0,0,0,0,0,-0.1793,-0.1778,-0.1811,-0.1809,-0.181,-0.1797,-0.1798,-0.1811,-0.1782,-0.178,-0.1812,-0.1814,-0.1766,-0.1761,-0.1756,-0.1726,-0.1742,-0.1739,-0.1737,-0.1592,-0.159,-0.1588,0,0,0,0,0,0,-0.1792,-0.1796,-0.1812,-0.1796,-0.1797,-0.1798,-0.181,-0.181,-0.1807,-0.1786,-0.1784,-0.1812,-0.1767,-0.176,-0.172,-0.1723,-0.1738,-0.1735,-0.1595,-0.1592,-0.1589,-0.1648,0,0,0,0,0,0,-0.1791,-0.1796,-0.1801,-0.1798,-0.1798,-0.1799,-0.1809,-0.1808,-0.1808,-0.181,-0.1785,-0.1782,-0.1767,-0.1725,-0.1717,-0.1719,-0.1732,-0.1597,-0.1593,-0.159,-0.1649,-0.1647,-0.1646,0,0,0,0,0,-0.1789,-0.18,-0.1802,-0.1806,-0.181,-0.18,-0.1796,-0.1797,-0.1807,-0.18,-0.1776,-0.1783,-0.1694,-0.172,-0.1712,-0.1713,-0.1599,-0.1595,-0.159,-0.1649,-0.1648,-0.1646,0,0,0,0,0,0,-0.1779,-0.1801,-0.1804,-0.182,-0.1812,-0.1803,-0.1799,-0.1799,-0.1774,-0.1779,-0.1759,-0.1752,-0.1709,-0.169,-0.1719,-0.1651,-0.1646,-0.164,-0.1694,-0.1692,-0.1691,-0.1749,-0.173,0,0,0,0,0,-0.1781,-0.1797,-0.1801,-0.1809,-0.181,-0.1803,-0.1798,-0.1801,-0.1784,-0.1776,-0.1753,-0.1719,-0.1678,-0.1672,-0.1623,-0.1598,-0.1632,-0.1586,-0.1585,-0.1585,-0.162,-0.1651,-0.1659,-0.1572,-0.1572,-0.1573,0,0,-0.1778,-0.1792,-0.18,-0.1808,-0.1803,-0.1806,-0.1803,-0.1802,-0.1804,-0.1772,-0.1753,-0.1705,-0.1661,-0.1624,-0.1605,-0.1619,-0.1625,-0.1579,-0.158,-0.1616,-0.1648,-0.1657,-0.1666,-0.1569,-0.157,-0.157,0,0,-0.1777,-0.1794,-0.1804,-0.1805,-0.1808,-0.1807,-0.1811,-0.1799,-0.1795,-0.1761,-0.1734,-0.1697,-0.1634,-0.1616,-0.1597,-0.1557,-0.1601,-0.1529,-0.1599,-0.1628,-0.1638,-0.1647,-0.1718,-0.1733,-0.155,-0.155,-0.155,0,-0.1771,-0.18,-0.1799,-0.1808,-0.1831,-0.1813,-0.1835,-0.1811,-0.1783,-0.1799,-0.176,-0.1692,-0.1636,-0.1635,-0.1609,-0.1562,-0.1606,-0.162,-0.1636,-0.1645,-0.1653,-0.1724,-0.174,-0.1552,-0.1552,-0.1552,-0.1552,0,-0.1775,-0.1804,-0.1811,-0.1831,-0.184,-0.1857,-0.1848,-0.1848,-0.1837,-0.1825,-0.1805,-0.1724,-0.1709,-0.1659,-0.162,-0.1646,-0.1667,-0.1621,-0.1662,-0.1667,-0.1739,-0.1755,-0.1556,-0.1555,-0.1554,-0.1554,0,0,-0.1762,-0.1811,-0.1814,-0.1857,-0.1872,-0.189,-0.19,-0.1928,-0.1972,-0.19,-0.1952,-0.1837,-0.182,-0.1794,-0.174,-0.1751,-0.1817,-0.1724,-0.1724,-0.1837,-0.1936,-0.1992,-0.2015,-0.179,-0.1793,-0.1795,-0.1972,0,-0.1776,-0.1825,-0.1845,-0.1904,-0.1945,-0.1967,-0.1993,-0.2012,-0.2012,-0.2038,-0.1977,-0.1962,-0.1864,-0.1859,-0.1856,-0.1813,-0.1859,-0.1777,-0.1878,-0.1883,-0.1966,-0.2034,-0.2044,-0.2207,-0.1987,-0.199,-0.1992,0,-0.1776,-0.183,-0.1894,-0.2005,-0.2026,-0.2048,-0.2152,-0.2163,-0.2191,-0.2195,-0.2192,-0.2146,-0.2133,-0.2035,-0.2045,-0.2007,-0.1993,-0.1964,-0.1969,-0.2021,-0.1968,-0.2156,-0.2243,-0.2278,-0.2016,-0.2014,-0.2012,0,-0.1792,-0.1872,-0.1943,-0.1971,-0.2066,-0.2118,-0.2158,-0.2212,-0.2255,-0.2288,-0.2332,-0.2315,-0.2304,-0.2278,-0.2199,-0.2142,-0.2234,-0.2144,-0.2203,-0.2207,-0.2239,-0.2242,-0.241,-0.2196,-0.2195,-0.2195,-0.2194,0,-0.1819,-0.1878,-0.1956,-0.2001,-0.2109,-0.2151,-0.2256,-0.2297,-0.2364,-0.2436,-0.2401,-0.2455,-0.2362,-0.2384,-0.2307,-0.2332,-0.233,-0.2266,-0.2268,-0.2256,-0.2259,-0.2304,-0.2277,-0.2201,-0.22,-0.2199,-0.2197,0,-0.1822,-0.1866,-0.1962,-0.2078,-0.2114,-0.218,-0.23,-0.2376,-0.2431,-0.2529,-0.2543,-0.258,-0.2609,-0.2557,-0.2533,-0.2488,-0.2493,-0.2491,-0.2508,-0.2509,-0.2578,-0.2552,-0.2677,-0.2645,-0.261,-0.2612,-0.2614,0,-0.183,-0.1872,-0.2,-0.2056,-0.2108,-0.2208,-0.2288,-0.2382,-0.2458,-0.2604,-0.2652,-0.2728,-0.2771,-0.2801,-0.2741,-0.2724,-0.2623,-0.2731,-0.2601,-0.2648,-0.2618,-0.2538,-0.2492,-0.2671,-0.2674,-0.2676,-0.2677,0,-0.1847,-0.1877,-0.195,-0.2065,-0.2154,-0.2263,-0.2369,-0.2449,-0.2571,-0.2667,-0.2799,-0.2854,-0.2931,-0.2939,-0.2932,-0.2868,-0.2733,-0.2774,-0.2807,-0.2701,-0.2639,-0.2587,-0.2514,-0.2696,-0.2694,-0.2692,-0.2691,-0.2691,-0.1832,-0.1881,-0.1954,-0.2059,-0.2163,-0.2267,-0.2308,-0.2449,-0.2563,-0.267,-0.2826,-0.2906,-0.305,-0.3037,-0.3008,-0.3009,-0.2886,-0.2941,-0.2918,-0.2843,-0.278,-0.2783,-0.2959,-0.2959,-0.2959,-0.2959,-0.2959,0,-0.1808,-0.1855,-0.1946,-0.2048,-0.2121,-0.2192,-0.2321,-0.2322,-0.2413,-0.2596,-0.2701,-0.2962,-0.3071,-0.3141,-0.3225,-0.3174,-0.3037,-0.3115,-0.2996,-0.2945,-0.2965,-0.2935,-0.3132,-0.3132,-0.3132,-0.3132,-0.3132,-0.3132,-0.1789,-0.1835,-0.1881,-0.1951,-0.2018,-0.2035,-0.207,-0.2092,-0.2166,-0.2293,-0.2481,-0.2641,-0.2847,-0.3349,-0.3403,-0.33,-0.3179,-0.3147,-0.3096,-0.3117,-0.3097,-0.3078,-0.3047,-0.3264,-0.3264,-0.303,-0.3029,-0.3028]},{"header":{"parameterUnit":"m.s-1","parameterCategory":2,"la1":30.2991,"la2":30.254,"lo1":-89.0895,"lo2":-89.0444,"dy":0.0017,"dx":0.0017,"nx":28,"ny":28,"refTime":"2024-04-09T21:00:00:Z","depth":"0","parameterNumber":3,"parameterNumberName":"V-component_of_CURRENTS"},"data":[0,0,0,0,0,0,0,0,0,0,0,0,0,0,0,0,0,0,0,0,0,0,0,0,0,0,0,0,0,0,0,0,0,0,0,0,0,0,0,0,0,0,0,0,0,0,0,0,0,0,0,0,0,0,0,0,0,0,-0.001,-0.0009,0,0.0075,0.0076,0.0078,0.0118,0.0118,0.0118,0.0118,0.0201,0.0203,0.0205,0,0,0,0,0,0,0,0,0,0,0,0,0,-0.0076,-0.0075,-0.001,-0.0009,-0.0008,0.0075,0.0077,0.0078,0.0118,0.0118,0.0118,0.0118,0.02,0.0203,0.0206,0,0,0,0,0,0,0,0,0,0,0,0,0,-0.0024,-0.0075,-0.001,0.0021,0.0025,0.0075,0.0077,0.0078,0.0118,0.0118,0.0118,0.0117,0.0199,0.0202,0.0206,0.0232,0,0,0.0217,0.0218,0,0,0,0,0,0,0,0,-0.0027,-0.0021,0.0016,0.0019,0.0023,0.0085,0.0084,0.0129,0.0118,0.0084,0.0118,0.0117,0.0161,0.0168,0.0186,0.0236,0.0239,0.0217,0.0219,0.0221,0.0222,0,0,0,0,0,0,0,-0.003,-0.0024,0.0025,0.0017,0.0021,0.0053,0.0059,0.0093,0.0123,0.0087,0.009,0.0098,0.0163,0.0182,0.0188,0.024,0.0217,0.022,0.0222,0.0224,0.0327,0.0328,0,0,0,0,0,0,-0.0046,-0.0028,0.0022,0.0027,-0.0004,0.0054,0.0061,0.0066,0.0123,0.0131,0.0098,0.0099,0.0177,0.0184,0.0191,0.0237,0.0221,0.0224,0.0226,0.0327,0.0328,0.0328,0,0,0,0,0,0,-0.0048,-0.0042,0.0019,0.0001,0.0011,0.0054,0.006,0.0068,0.0087,0.0131,0.014,0.0108,0.0177,0.0186,0.0227,0.0239,0.0225,0.0229,0.0326,0.0327,0.0328,0.032,0,0,0,0,0,0,-0.005,-0.0044,-0.0047,-0.0,0.0011,0.0046,0.0061,0.007,0.0091,0.0094,0.0143,0.015,0.0177,0.0222,0.023,0.0244,0.0231,0.0325,0.0326,0.0328,0.0319,0.032,0.0321,0,0,0,0,0,-0.0053,-0.0062,-0.0048,-0.0042,0.0006,0.0046,0.0055,0.0086,0.0092,0.0102,0.0138,0.0149,0.0235,0.0225,0.0235,0.025,0.0325,0.0326,0.0327,0.0319,0.032,0.0321,0,0,0,0,0,0,-0.0096,-0.0057,-0.0041,-0.0039,0.0001,0.0052,0.0061,0.0084,0.0121,0.0122,0.0161,0.0172,0.0209,0.0232,0.022,0.0283,0.028,0.0284,0.027,0.0272,0.0273,0.0282,0.0234,0,0,0,0,0,-0.0106,-0.01,-0.0053,-0.0049,-0.0032,0.0016,0.0034,0.0058,0.0097,0.0113,0.0149,0.0187,0.0224,0.0249,0.028,0.032,0.0358,0.0335,0.0336,0.0337,0.0352,0.0418,0.0427,0.0333,0.0333,0.0333,0,0,-0.0124,-0.01,-0.0097,-0.0057,-0.0025,0.0002,0.0026,0.0054,0.0079,0.0116,0.0157,0.0189,0.0234,0.0276,0.0295,0.0298,0.0383,0.0339,0.0339,0.0354,0.0421,0.043,0.0438,0.0334,0.0334,0.0334,0,0,-0.0149,-0.013,-0.0129,-0.0097,-0.0051,-0.0015,-0.0009,0.0045,0.0072,0.0116,0.0148,0.0198,0.0245,0.0296,0.0322,0.0351,0.038,0.0347,0.0371,0.0434,0.0443,0.0451,0.0507,0.052,0.0355,0.0355,0.0355,0,-0.0172,-0.0163,-0.0122,-0.0105,-0.0083,-0.0025,-0.0012,0.0031,0.0092,0.0125,0.0123,0.0229,0.0262,0.0339,0.0347,0.0356,0.0389,0.036,0.0436,0.0445,0.0453,0.0509,0.0524,0.0355,0.0355,0.0355,0.0355,0,-0.0189,-0.0179,-0.0175,-0.0132,-0.0099,-0.0081,-0.0015,0.0026,0.0063,0.0112,0.0187,0.0246,0.0313,0.0328,0.0347,0.0425,0.0427,0.0423,0.0432,0.0462,0.0519,0.0534,0.0354,0.0355,0.0355,0.0355,0,0,-0.025,-0.02,-0.0199,-0.0188,-0.0116,-0.0095,-0.0034,0.0038,0.0079,0.015,0.0211,0.0292,0.0332,0.0367,0.0405,0.0468,0.0551,0.0468,0.0471,0.0523,0.0687,0.0752,0.0775,0.0553,0.0556,0.0558,0.0702,0,-0.0278,-0.0278,-0.0227,-0.021,-0.0205,-0.012,-0.0071,0.0007,0.0081,0.0157,0.0253,0.0312,0.0344,0.037,0.0446,0.0521,0.0591,0.0513,0.0652,0.0657,0.071,0.0795,0.0896,0.1039,0.0717,0.0719,0.0721,0,-0.0308,-0.0309,-0.0311,-0.026,-0.0246,-0.0218,-0.0125,-0.0073,0.0065,0.0123,0.0231,0.0304,0.0428,0.0427,0.0611,0.0554,0.0624,0.0683,0.069,0.0769,0.0751,0.0958,0.1079,0.1312,0.0745,0.0743,0.0742,0,-0.039,-0.036,-0.0371,-0.0356,-0.0288,-0.0261,-0.0216,-0.0091,-0.0046,0.0101,0.0154,0.0317,0.0387,0.0515,0.0661,0.0631,0.0852,0.0823,0.0956,0.096,0.1087,0.1099,0.1455,0.0952,0.0952,0.0952,0.0951,0,-0.0445,-0.0452,-0.0418,-0.0429,-0.0436,-0.0348,-0.0316,-0.0235,-0.0117,-0.0053,0.0116,0.0211,0.0409,0.0564,0.068,0.089,0.0876,0.0996,0.102,0.1086,0.1095,0.1334,0.1387,0.0957,0.0956,0.0955,0.0954,0,-0.053,-0.0504,-0.0525,-0.0487,-0.0479,-0.0489,-0.0419,-0.0389,-0.0254,-0.0161,-0.0119,0.0134,0.0365,0.0573,0.0799,0.0917,0.1232,0.116,0.1228,0.1259,0.1592,0.1637,0.1929,0.2012,0.1346,0.1349,0.1351,0,-0.0572,-0.0597,-0.0602,-0.0635,-0.0625,-0.0622,-0.0618,-0.0491,-0.0441,-0.0201,-0.0161,0.0107,0.0334,0.0731,0.1001,0.1273,0.1368,0.1484,0.1458,0.1676,0.1744,0.1732,0.1778,0.162,0.1624,0.1628,0.163,0,-0.0666,-0.0669,-0.0695,-0.0777,-0.0798,-0.0803,-0.0772,-0.0745,-0.0567,-0.0432,-0.0189,0.0026,0.0487,0.0934,0.1302,0.1426,0.1662,0.1563,0.1794,0.2015,0.2024,0.2092,0.1442,0.1662,0.1659,0.1656,0.1655,0.1653,-0.0739,-0.0796,-0.0846,-0.0921,-0.0957,-0.0971,-0.0963,-0.0872,-0.0759,-0.0478,-0.0242,0.0171,0.0878,0.1463,0.1615,0.2062,0.1917,0.2193,0.2236,0.2208,0.2297,0.1715,0.1949,0.1947,0.1946,0.1945,0.1944,0,-0.0833,-0.0902,-0.099,-0.1065,-0.1133,-0.1102,-0.1057,-0.0985,-0.0842,-0.0473,-0.0165,0.0699,0.1377,0.193,0.2611,0.2786,0.273,0.2852,0.2902,0.2915,0.2448,0.2473,0.2827,0.2827,0.2826,0.2826,0.2826,0.2826,-0.0889,-0.1005,-0.106,-0.1213,-0.1255,-0.1274,-0.1241,-0.1072,-0.0807,-0.0194,0.0353,0.0778,0.1663,0.291,0.3502,0.3465,0.3573,0.3519,0.3556,0.3301,0.3243,0.3188,0.3233,0.3741,0.3742,0.4025,0.4028,0.4031]}],[{"header":{"parameterUnit":"m.s-1","parameterCategory":2,"la1":30.2991,"la2":30.254,"lo1":-89.0895,"lo2":-89.0444,"dy":0.0017,"dx":0.0017,"nx":28,"ny":28,"refTime":"2024-04-09T21:00:00:Z","depth":"2","parameterNumber":2,"parameterNumberName":"U-component_of_CURRENTS"},"data":[0,0,0,0,0,0,0,0,0,0,0,0,0,0,0,0,0,0,0,0,0,0,0,0,0,0,0,0,0,0,0,0,0,0,0,0,0,0,0,0,0,0,0,0,0,0,0,0,0,0,0,0,0,0,0,0,0,0,-0.1777,-0.1778,0,-0.1751,-0.1751,-0.175,-0.1758,-0.1759,-0.1759,-0.176,-0.1714,-0.1712,-0.171,0,0,0,0,0,0,0,0,0,0,0,0,0,-0.1732,-0.1733,-0.1777,-0.1778,-0.1778,-0.1751,-0.1751,-0.175,-0.1757,-0.1759,-0.176,-0.1761,-0.1715,-0.1713,-0.171,0,0,0,0,0,0,0,0,0,0,0,0,0,-0.1729,-0.1733,-0.1777,-0.1781,-0.1782,-0.1752,-0.1751,-0.175,-0.1757,-0.1759,-0.176,-0.1761,-0.1716,-0.1713,-0.171,-0.1662,0,0,-0.17,-0.1699,0,0,0,0,0,0,0,0,-0.1729,-0.173,-0.1781,-0.1781,-0.1782,-0.1763,-0.1718,-0.1721,-0.1757,-0.1762,-0.176,-0.1762,-0.1731,-0.1726,-0.1712,-0.166,-0.1658,-0.17,-0.1698,-0.1697,-0.1696,0,0,0,0,0,0,0,-0.173,-0.1731,-0.1763,-0.1781,-0.1781,-0.175,-0.1752,-0.1718,-0.1735,-0.1762,-0.1763,-0.1767,-0.173,-0.1715,-0.1711,-0.1657,-0.17,-0.1697,-0.1695,-0.1694,-0.1545,-0.1543,0,0,0,0,0,0,-0.1746,-0.1732,-0.1764,-0.1762,-0.1763,-0.175,-0.1752,-0.1764,-0.1736,-0.1734,-0.1766,-0.1767,-0.172,-0.1715,-0.171,-0.168,-0.1697,-0.1694,-0.1692,-0.1547,-0.1545,-0.1542,0,0,0,0,0,0,-0.1745,-0.1749,-0.1765,-0.1749,-0.175,-0.1751,-0.1763,-0.1763,-0.1761,-0.174,-0.1737,-0.1767,-0.1721,-0.1714,-0.1674,-0.1678,-0.1692,-0.1689,-0.155,-0.1546,-0.1544,-0.1603,0,0,0,0,0,0,-0.1744,-0.1749,-0.1755,-0.1751,-0.1751,-0.1752,-0.1763,-0.1761,-0.1762,-0.1764,-0.1739,-0.1736,-0.1721,-0.1679,-0.1671,-0.1674,-0.1687,-0.1552,-0.1548,-0.1545,-0.1603,-0.1602,-0.1601,0,0,0,0,0,-0.1742,-0.1753,-0.1756,-0.1759,-0.1763,-0.1753,-0.1749,-0.1751,-0.1761,-0.1754,-0.1731,-0.1737,-0.1649,-0.1675,-0.1666,-0.1668,-0.1554,-0.1549,-0.1545,-0.1604,-0.1602,-0.1601,0,0,0,0,0,0,-0.1733,-0.1755,-0.1758,-0.1774,-0.1765,-0.1756,-0.1753,-0.1753,-0.1728,-0.1733,-0.1713,-0.1706,-0.1664,-0.1645,-0.1674,-0.1605,-0.1601,-0.1594,-0.1648,-0.1647,-0.1645,-0.1704,-0.1684,0,0,0,0,0,-0.1735,-0.175,-0.1754,-0.1763,-0.1764,-0.1757,-0.1752,-0.1754,-0.1738,-0.173,-0.1707,-0.1674,-0.1632,-0.1627,-0.1578,-0.1552,-0.1586,-0.1541,-0.154,-0.1539,-0.1575,-0.1606,-0.1614,-0.1527,-0.1527,-0.1527,0,0,-0.1732,-0.1746,-0.1753,-0.1762,-0.1757,-0.1759,-0.1757,-0.1757,-0.1758,-0.1726,-0.1707,-0.166,-0.1616,-0.1578,-0.156,-0.1574,-0.158,-0.1533,-0.1534,-0.1571,-0.1602,-0.1612,-0.162,-0.1524,-0.1525,-0.1525,0,0,-0.1732,-0.1749,-0.1758,-0.1759,-0.1763,-0.1761,-0.1765,-0.1753,-0.1749,-0.1716,-0.1689,-0.1653,-0.1589,-0.1571,-0.1552,-0.1511,-0.1556,-0.1484,-0.1554,-0.1583,-0.1592,-0.1601,-0.1672,-0.1687,-0.1505,-0.1505,-0.1505,0,-0.1725,-0.1754,-0.1753,-0.1762,-0.1785,-0.1767,-0.1789,-0.1765,-0.1738,-0.1754,-0.1715,-0.1647,-0.1591,-0.1589,-0.1563,-0.1517,-0.156,-0.1574,-0.159,-0.1599,-0.1608,-0.1677,-0.1693,-0.1507,-0.1507,-0.1507,-0.1507,0,-0.173,-0.1759,-0.1765,-0.1785,-0.1794,-0.1811,-0.1802,-0.1802,-0.1791,-0.178,-0.176,-0.1679,-0.1664,-0.1614,-0.1575,-0.1601,-0.1622,-0.1576,-0.1616,-0.1622,-0.1692,-0.1708,-0.1511,-0.151,-0.1509,-0.1508,0,0,-0.1717,-0.1765,-0.1769,-0.1811,-0.1826,-0.1843,-0.1854,-0.1881,-0.1925,-0.1854,-0.1905,-0.1791,-0.1774,-0.1748,-0.1694,-0.1705,-0.177,-0.1678,-0.1678,-0.179,-0.1888,-0.1943,-0.1965,-0.1744,-0.1746,-0.1748,-0.1924,0,-0.1731,-0.178,-0.1799,-0.1858,-0.1898,-0.1921,-0.1946,-0.1964,-0.1965,-0.1991,-0.193,-0.1915,-0.1817,-0.1813,-0.181,-0.1767,-0.1812,-0.1731,-0.1831,-0.1835,-0.1917,-0.1984,-0.1702,-0.1838,-0.1939,-0.1942,-0.1943,0,-0.1731,-0.1785,-0.1848,-0.1958,-0.1979,-0.2001,-0.2104,-0.2114,-0.2142,-0.2147,-0.2144,-0.2098,-0.2085,-0.1987,-0.1997,-0.1959,-0.1945,-0.1916,-0.1921,-0.1972,-0.1918,-0.1839,-0.1863,-0.197,-0.1968,-0.1966,-0.1964,0,-0.1747,-0.1826,-0.1897,-0.1925,-0.2018,-0.207,-0.211,-0.2164,-0.2207,-0.224,-0.2283,-0.2266,-0.2254,-0.2229,-0.215,-0.2094,-0.2184,-0.2094,-0.2152,-0.2157,-0.1938,-0.1921,-0.2146,-0.2146,-0.2145,-0.2145,-0.2144,0,-0.1774,-0.1833,-0.1911,-0.1955,-0.2062,-0.2104,-0.2208,-0.2249,-0.2315,-0.2386,-0.2352,-0.2404,-0.2312,-0.2334,-0.2257,-0.2281,-0.228,-0.2215,-0.2217,-0.195,-0.1932,-0.2044,-0.203,-0.2152,-0.215,-0.2149,-0.2148,0,-0.1778,-0.1822,-0.1916,-0.2031,-0.2067,-0.2133,-0.2251,-0.2327,-0.2382,-0.2479,-0.2493,-0.2529,-0.2557,-0.2505,-0.2481,-0.2436,-0.2428,-0.2437,-0.2162,-0.2131,-0.2363,-0.2349,-0.2547,-0.2551,-0.2554,-0.2557,-0.2559,0,-0.1786,-0.1828,-0.1954,-0.201,-0.2062,-0.2161,-0.224,-0.2333,-0.2408,-0.2552,-0.26,-0.2675,-0.2701,-0.2729,-0.2593,-0.2552,-0.2559,-0.237,-0.2201,-0.2429,-0.241,-0.2391,-0.2373,-0.1926,-0.1923,-0.1921,-0.1918,0,-0.1803,-0.1833,-0.1906,-0.2019,-0.2108,-0.2214,-0.232,-0.2399,-0.252,-0.2595,-0.2725,-0.2763,-0.2771,-0.2588,-0.2549,-0.2463,-0.2347,-0.2327,-0.2622,-0.1891,-0.1863,-0.1839,-0.1837,-0.1895,-0.1897,-0.1899,-0.19,-0.1901,-0.1789,-0.1837,-0.1909,-0.2013,-0.2116,-0.2218,-0.2259,-0.2307,-0.2389,-0.2363,-0.2633,-0.2527,-0.2549,-0.2276,-0.2241,-0.2159,-0.2288,-0.2166,-0.2164,-0.2167,-0.2086,-0.2068,-0.2125,-0.2129,-0.2132,-0.2134,-0.2137,0,-0.1734,-0.1811,-0.1901,-0.2002,-0.2022,-0.2145,-0.2272,-0.2142,-0.2089,-0.2107,-0.2109,-0.1936,-0.1893,-0.1907,-0.1734,-0.1811,-0.1663,-0.1776,-0.1535,-0.156,-0.1581,-0.1461,-0.1339,-0.1338,-0.1336,-0.1335,0,0,-0.1707,-0.1735,-0.178,-0.1812,-0.191,-0.1822,-0.1853,-0.1661,-0.1547,-0.1338,-0.1277,-0.1466,-0.1703,-0.1419,-0.1461,-0.1363,-0.1403,-0.1288,-0.1908,-0.163,-0.1648,-0.1785,-0.1629,0,0,0,0,0]},{"header":{"parameterUnit":"m.s-1","parameterCategory":2,"la1":30.2991,"la2":30.254,"lo1":-89.0895,"lo2":-89.0444,"dy":0.0017,"dx":0.0017,"nx":28,"ny":28,"refTime":"2024-04-09T21:00:00:Z","depth":"2","parameterNumber":3,"parameterNumberName":"V-component_of_CURRENTS"},"data":[0,0,0,0,0,0,0,0,0,0,0,0,0,0,0,0,0,0,0,0,0,0,0,0,0,0,0,0,0,0,0,0,0,0,0,0,0,0,0,0,0,0,0,0,0,0,0,0,0,0,0,0,0,0,0,0,0,0,-0.0032,-0.0031,0,0.0054,0.0055,0.0056,0.0096,0.0096,0.0096,0.0096,0.0179,0.0181,0.0184,0,0,0,0,0,0,0,0,0,0,0,0,0,-0.0097,-0.0097,-0.0032,-0.0031,-0.003,0.0053,0.0055,0.0056,0.0096,0.0096,0.0096,0.0096,0.0178,0.0181,0.0184,0,0,0,0,0,0,0,0,0,0,0,0,0,-0.0045,-0.0096,-0.0032,-0.0,0.0003,0.0053,0.0055,0.0056,0.0096,0.0096,0.0096,0.0096,0.0177,0.0181,0.0184,0.021,0,0,0.0195,0.0197,0,0,0,0,0,0,0,0,-0.0048,-0.0043,-0.0006,-0.0002,0.0002,0.0063,0.0062,0.0107,0.0096,0.0062,0.0096,0.0096,0.014,0.0146,0.0164,0.0214,0.0218,0.0195,0.0198,0.0199,0.02,0,0,0,0,0,0,0,-0.0052,-0.0046,0.0003,-0.0005,-0.0,0.0031,0.0037,0.0071,0.0102,0.0065,0.0068,0.0076,0.0142,0.0161,0.0166,0.0219,0.0195,0.0198,0.0201,0.0202,0.0306,0.0307,0,0,0,0,0,0,-0.0068,-0.005,0.0,0.0006,-0.0026,0.0032,0.0039,0.0044,0.0101,0.011,0.0076,0.0077,0.0155,0.0162,0.0169,0.0215,0.0199,0.0202,0.0204,0.0306,0.0307,0.0307,0,0,0,0,0,0,-0.0069,-0.0064,-0.0003,-0.0021,-0.0011,0.0032,0.0038,0.0046,0.0065,0.011,0.0118,0.0086,0.0155,0.0165,0.0206,0.0218,0.0204,0.0207,0.0305,0.0306,0.0307,0.03,0,0,0,0,0,0,-0.0072,-0.0065,-0.0069,-0.0022,-0.0011,0.0024,0.0039,0.0048,0.007,0.0072,0.0121,0.0129,0.0156,0.02,0.0209,0.0223,0.021,0.0304,0.0305,0.0307,0.0299,0.03,0.0301,0,0,0,0,0,-0.0074,-0.0084,-0.0069,-0.0063,-0.0016,0.0024,0.0033,0.0064,0.007,0.008,0.0116,0.0127,0.0214,0.0204,0.0214,0.0229,0.0304,0.0305,0.0307,0.0298,0.03,0.0301,0,0,0,0,0,0,-0.0118,-0.0079,-0.0063,-0.006,-0.002,0.003,0.004,0.0062,0.01,0.01,0.014,0.0151,0.0188,0.0211,0.0198,0.0263,0.0259,0.0263,0.025,0.0251,0.0252,0.0261,0.0213,0,0,0,0,0,-0.0128,-0.0121,-0.0074,-0.007,-0.0053,-0.0006,0.0013,0.0036,0.0076,0.0092,0.0128,0.0166,0.0203,0.0228,0.0259,0.03,0.0337,0.0315,0.0316,0.0317,0.0331,0.0396,0.0405,0.0312,0.0312,0.0312,0,0,-0.0145,-0.0121,-0.0119,-0.0078,-0.0046,-0.0019,0.0005,0.0032,0.0058,0.0095,0.0136,0.0168,0.0213,0.0256,0.0275,0.0278,0.0362,0.0319,0.0319,0.0333,0.0399,0.0408,0.0416,0.0313,0.0313,0.0313,0,0,-0.017,-0.0151,-0.015,-0.0117,-0.0072,-0.0036,-0.003,0.0024,0.0052,0.0096,0.0128,0.0177,0.0225,0.0275,0.0302,0.0332,0.036,0.0328,0.0351,0.0414,0.0422,0.043,0.0485,0.0498,0.0336,0.0336,0.0336,0,-0.0193,-0.0184,-0.0142,-0.0126,-0.0104,-0.0045,-0.0032,0.0011,0.0072,0.0105,0.0103,0.0209,0.0242,0.0319,0.0327,0.0337,0.0369,0.034,0.0416,0.0424,0.0433,0.0488,0.0502,0.0335,0.0336,0.0336,0.0336,0,-0.0209,-0.0199,-0.0194,-0.0152,-0.0118,-0.0101,-0.0034,0.0007,0.0043,0.0093,0.0167,0.0226,0.0292,0.0308,0.0327,0.0405,0.0406,0.0403,0.0412,0.0442,0.0497,0.0513,0.0335,0.0335,0.0335,0.0335,0,0,-0.027,-0.022,-0.0218,-0.0207,-0.0135,-0.0114,-0.0053,0.0018,0.0059,0.013,0.019,0.0272,0.0312,0.0346,0.0385,0.0448,0.053,0.0447,0.045,0.0501,0.0664,0.0726,0.0749,0.0532,0.0535,0.0537,0.0678,0,-0.0297,-0.0297,-0.0245,-0.0229,-0.0224,-0.0139,-0.0091,-0.0013,0.0061,0.0136,0.0231,0.0291,0.0324,0.035,0.0425,0.05,0.0569,0.0492,0.0629,0.0633,0.0685,0.0769,0.058,0.0696,0.0693,0.0695,0.0697,0,-0.0326,-0.0327,-0.033,-0.0279,-0.0265,-0.0237,-0.0145,-0.0093,0.0043,0.0101,0.0209,0.0281,0.0405,0.0405,0.0587,0.0531,0.06,0.066,0.0666,0.0742,0.0726,0.0667,0.0724,0.0723,0.0721,0.0719,0.0717,0,-0.0408,-0.0378,-0.039,-0.0375,-0.0307,-0.028,-0.0236,-0.0112,-0.0067,0.0079,0.0131,0.0293,0.0363,0.049,0.0635,0.0606,0.0824,0.0797,0.0927,0.0931,0.0811,0.0802,0.0925,0.0925,0.0924,0.0924,0.0924,0,-0.0463,-0.047,-0.0437,-0.0447,-0.0455,-0.0367,-0.0336,-0.0256,-0.0138,-0.0076,0.0093,0.0186,0.0384,0.0538,0.0653,0.0861,0.0848,0.0966,0.099,0.0804,0.0793,0.084,0.0829,0.0929,0.0928,0.0927,0.0926,0,-0.0547,-0.0522,-0.0542,-0.0505,-0.0498,-0.0508,-0.0439,-0.041,-0.0275,-0.0184,-0.0142,0.0109,0.0338,0.0545,0.077,0.0887,0.1064,0.1127,0.0906,0.0904,0.1119,0.1105,0.1302,0.1306,0.1309,0.1312,0.1314,0,-0.0589,-0.0614,-0.0619,-0.0652,-0.0642,-0.064,-0.0636,-0.0511,-0.0462,-0.0224,-0.0185,0.008,0.0292,0.0685,0.0875,0.1122,0.1161,0.1145,0.1081,0.1164,0.1167,0.1147,0.113,0.0901,0.09,0.0899,0.0898,0,-0.0682,-0.0685,-0.0711,-0.0794,-0.0815,-0.0821,-0.0791,-0.0765,-0.0589,-0.0467,-0.0227,-0.0027,0.0355,0.0609,0.0943,0.1046,0.1099,0.1138,0.1283,0.0855,0.0804,0.08,0.0792,0.0888,0.0889,0.089,0.089,0.0891,-0.0755,-0.0812,-0.0862,-0.0937,-0.0973,-0.0989,-0.0982,-0.0929,-0.0835,-0.0656,-0.0376,-0.0112,0.0239,0.063,0.0884,0.1065,0.1095,0.1122,0.1117,0.1115,0.1064,0.1024,0.1139,0.1141,0.1143,0.1145,0.1146,0,-0.085,-0.0918,-0.1006,-0.1081,-0.1151,-0.1119,-0.1076,-0.106,-0.0981,-0.0814,-0.0595,-0.0238,0.01,0.0468,0.072,0.098,0.0882,0.1034,0.0846,0.0852,0.0859,0.0789,0.0794,0.0795,0.0796,0.0796,0,0,-0.0907,-0.1022,-0.1076,-0.123,-0.1273,-0.1318,-0.1286,-0.1249,-0.1147,-0.0996,-0.0819,-0.0525,0.0016,0.0164,0.0468,0.0628,0.0656,0.0609,0.0842,0.0579,0.0583,0.0843,0.0736,0,0,0,0,0]}],[{"header":{"parameterUnit":"m.s-1","parameterCategory":2,"la1":30.2991,"la2":30.254,"lo1":-89.0895,"lo2":-89.0444,"dy":0.0017,"dx":0.0017,"nx":28,"ny":28,"refTime":"2024-04-09T21:00:00:Z","depth":"4","parameterNumber":2,"parameterNumberName":"U-component_of_CURRENTS"},"data":[0,0,0,0,0,0,0,0,0,0,0,0,0,0,0,0,0,0,0,0,0,0,0,0,0,0,0,0,0,0,0,0,0,0,0,0,0,0,0,0,0,0,0,0,0,0,0,0,0,0,0,0,0,0,0,0,0,0,-0.0761,-0.0761,0,-0.0769,-0.0769,-0.0768,-0.0791,-0.0791,-0.0792,-0.0793,-0.0747,-0.0745,-0.0743,0,0,0,0,0,0,0,0,0,0,0,0,0,-0.0699,-0.07,-0.0761,-0.0761,-0.0762,-0.0769,-0.0769,-0.0768,-0.079,-0.0791,-0.0792,-0.0793,-0.0747,-0.0745,-0.0743,0,0,0,0,0,0,0,0,0,0,0,0,0,-0.0715,-0.0701,-0.0761,-0.0776,-0.0778,-0.0769,-0.0769,-0.0768,-0.079,-0.0791,-0.0793,-0.0794,-0.0748,-0.0745,-0.0742,-0.07,0,0,-0.0733,-0.0732,0,0,0,0,0,0,0,0,-0.0714,-0.0717,-0.0773,-0.0775,-0.0777,-0.0783,-0.073,-0.0744,-0.079,-0.0782,-0.0793,-0.0794,-0.0755,-0.0752,-0.0746,-0.0697,-0.0695,-0.0733,-0.0731,-0.073,-0.0729,0,0,0,0,0,0,0,-0.0713,-0.0716,-0.076,-0.0774,-0.0776,-0.0761,-0.0764,-0.0732,-0.0758,-0.0783,-0.0785,-0.0791,-0.0756,-0.0749,-0.0745,-0.0695,-0.0733,-0.073,-0.0728,-0.0727,-0.0632,-0.0632,0,0,0,0,0,0,-0.0722,-0.0716,-0.076,-0.0761,-0.0752,-0.0761,-0.0765,-0.0777,-0.0759,-0.0759,-0.079,-0.0792,-0.0754,-0.0749,-0.0744,-0.0749,-0.073,-0.0727,-0.0725,-0.0633,-0.0632,-0.0631,0,0,0,0,0,0,-0.0721,-0.0726,-0.076,-0.0741,-0.0745,-0.0762,-0.0774,-0.0777,-0.0793,-0.0767,-0.0765,-0.0807,-0.0754,-0.0748,-0.0735,-0.0745,-0.0726,-0.0723,-0.0634,-0.0633,-0.0632,-0.0722,0,0,0,0,0,0,-0.0719,-0.0725,-0.0739,-0.0742,-0.0746,-0.0772,-0.0774,-0.0776,-0.0795,-0.0798,-0.078,-0.0776,-0.0755,-0.074,-0.0732,-0.074,-0.0721,-0.0635,-0.0633,-0.0632,-0.072,-0.0724,-0.0728,0,0,0,0,0,-0.0717,-0.0735,-0.074,-0.0745,-0.0764,-0.0773,-0.0774,-0.0787,-0.0795,-0.0805,-0.0793,-0.0778,-0.0725,-0.0738,-0.0729,-0.0736,-0.0635,-0.0634,-0.0632,-0.0718,-0.0723,-0.0728,0,0,0,0,0,0,-0.0715,-0.0739,-0.0745,-0.0769,-0.0778,-0.0779,-0.0793,-0.0797,-0.0794,-0.0802,-0.0775,-0.077,-0.0756,-0.0726,-0.074,-0.0699,-0.0674,-0.067,-0.0742,-0.0747,-0.075,-0.0781,-0.0718,0,0,0,0,0,-0.072,-0.0743,-0.0755,-0.0775,-0.0784,-0.0789,-0.0796,-0.0806,-0.0804,-0.0806,-0.0791,-0.0765,-0.0735,-0.073,-0.0695,-0.0681,-0.0694,-0.0673,-0.0677,-0.0681,-0.0696,-0.0721,-0.073,-0.0626,-0.0626,-0.0626,0,0,-0.0725,-0.0742,-0.0755,-0.0777,-0.0786,-0.0805,-0.0797,-0.0818,-0.0834,-0.0797,-0.0812,-0.0777,-0.0731,-0.0716,-0.0706,-0.0701,-0.072,-0.0679,-0.0683,-0.0696,-0.072,-0.0731,-0.0741,-0.0625,-0.0625,-0.0625,0,0,-0.0744,-0.0762,-0.0787,-0.0801,-0.0824,-0.0827,-0.0839,-0.0848,-0.0855,-0.0856,-0.0829,-0.0809,-0.0768,-0.0745,-0.0724,-0.0723,-0.0734,-0.0703,-0.0762,-0.0786,-0.0796,-0.0805,-0.0865,-0.0879,-0.0714,-0.0714,-0.0714,0,-0.0748,-0.0786,-0.0793,-0.0821,-0.0845,-0.0842,-0.0875,-0.0873,-0.0876,-0.089,-0.0872,-0.0829,-0.0782,-0.0778,-0.077,-0.0737,-0.0769,-0.0757,-0.0797,-0.0806,-0.0814,-0.0873,-0.0887,-0.0718,-0.0718,-0.0717,-0.0717,0,-0.0782,-0.0819,-0.0837,-0.0875,-0.0895,-0.0923,-0.0931,-0.0948,-0.0952,-0.0951,-0.0952,-0.0895,-0.088,-0.0846,-0.0807,-0.083,-0.0843,-0.08,-0.0801,-0.0831,-0.089,-0.0903,-0.0724,-0.0723,-0.0721,-0.072,0,0,-0.0776,-0.0849,-0.0857,-0.0894,-0.0933,-0.0953,-0.0988,-0.102,-0.1061,-0.1037,-0.1084,-0.1006,-0.0992,-0.0965,-0.0915,-0.0921,-0.0992,-0.0892,-0.0892,-0.0982,-0.1092,-0.1039,-0.1048,-0.0971,-0.0973,-0.0975,-0.1124,0,-0.0804,-0.0874,-0.0904,-0.0972,-0.1009,-0.1037,-0.1074,-0.1102,-0.1118,-0.1156,-0.111,-0.1114,-0.1033,-0.1033,-0.1029,-0.0992,-0.1026,-0.0958,-0.1023,-0.1026,-0.0998,-0.1059,-0.0981,-0.1134,-0.1137,-0.1139,-0.1141,0,-0.0826,-0.0876,-0.0951,-0.1042,-0.1063,-0.1101,-0.1185,-0.1217,-0.1261,-0.1276,-0.1287,-0.1261,-0.1257,-0.1178,-0.1186,-0.1156,-0.114,-0.1114,-0.1118,-0.1045,-0.0995,-0.1085,-0.1164,-0.1162,-0.1161,-0.1159,-0.1158,0,-0.0819,-0.091,-0.0977,-0.1005,-0.1097,-0.1145,-0.1192,-0.1255,-0.1299,-0.1357,-0.1401,-0.1399,-0.1404,-0.1382,-0.1318,-0.1273,-0.1343,-0.1272,-0.1225,-0.1223,-0.1189,-0.1177,-0.1305,-0.1305,-0.1305,-0.1304,-0.1304,0,-0.0834,-0.089,-0.0981,-0.1018,-0.11,-0.1163,-0.1254,-0.1301,-0.1386,-0.1444,-0.1458,-0.1494,-0.1454,-0.1475,-0.1408,-0.1373,-0.1426,-0.1264,-0.1258,-0.1224,-0.1214,-0.1202,-0.1187,-0.131,-0.1309,-0.1308,-0.1307,0,-0.0812,-0.0878,-0.0953,-0.1062,-0.1098,-0.1152,-0.1276,-0.1338,-0.1427,-0.1511,-0.1536,-0.1596,-0.1613,-0.1592,-0.1571,-0.149,-0.1454,-0.1431,-0.1457,-0.1445,-0.1306,-0.1294,-0.1409,-0.1409,-0.1408,-0.1408,-0.1407,0,-0.0809,-0.0846,-0.096,-0.1002,-0.1053,-0.1146,-0.121,-0.1328,-0.1388,-0.1547,-0.1573,-0.1659,-0.167,-0.1631,-0.1597,-0.155,-0.1489,-0.1505,-0.1342,-0.1335,-0.1318,-0.1307,-0.1296,-0.1406,-0.1406,-0.1406,-0.1406,0,-0.0786,-0.0827,-0.088,-0.0956,-0.1029,-0.1109,-0.1206,-0.1255,-0.1393,-0.1512,-0.1574,-0.159,-0.163,-0.1588,-0.1587,-0.1521,-0.1507,-0.1498,-0.1496,-0.1342,-0.1333,-0.1313,-0.1304,-0.1404,-0.1404,-0.1404,-0.1404,0,-0.0749,-0.0765,-0.0823,-0.0885,-0.0972,-0.1022,-0.1099,-0.1182,-0.1264,-0.145,-0.1472,-0.1546,-0.1629,-0.1578,-0.156,-0.152,-0.1453,-0.1377,-0.138,-0.1382,-0.129,-0.1269,-0.1344,0,0,0,0,0,-0.0701,-0.0699,-0.0747,-0.0792,-0.0877,-0.0911,-0.1067,-0.1149,-0.131,-0.1328,-0.1398,-0.1424,-0.1432,-0.1463,-0.1401,-0.1505,-0.1436,-0.1428,-0.1343,-0.1393,-0.1395,-0.1282,0,0,0,0,0,0,-0.0658,-0.0688,-0.0702,-0.0697,-0.0702,-0.0769,-0.0859,-0.0975,-0.0997,-0.1172,-0.1173,-0.1317,-0.132,-0.1411,-0.1351,-0.1362,-0.1282,-0.1486,-0.1483,-0.1392,-0.1394,-0.1396,-0.128,0,0,0,0,0]},{"header":{"parameterUnit":"m.s-1","parameterCategory":2,"la1":30.2991,"la2":30.254,"lo1":-89.0895,"lo2":-89.0444,"dy":0.0017,"dx":0.0017,"nx":28,"ny":28,"refTime":"2024-04-09T21:00:00:Z","depth":"4","parameterNumber":3,"parameterNumberName":"V-component_of_CURRENTS"},"data":[0,0,0,0,0,0,0,0,0,0,0,0,0,0,0,0,0,0,0,0,0,0,0,0,0,0,0,0,0,0,0,0,0,0,0,0,0,0,0,0,0,0,0,0,0,0,0,0,0,0,0,0,0,0,0,0,0,0,-0.0279,-0.0278,0,-0.0212,-0.0211,-0.021,-0.0189,-0.0189,-0.0189,-0.019,-0.0129,-0.0127,-0.0125,0,0,0,0,0,0,0,0,0,0,0,0,0,-0.0334,-0.0334,-0.0279,-0.0278,-0.0278,-0.0212,-0.0211,-0.021,-0.0188,-0.0189,-0.019,-0.019,-0.013,-0.0127,-0.0125,0,0,0,0,0,0,0,0,0,0,0,0,0,-0.0292,-0.0333,-0.0279,-0.026,-0.0258,-0.0213,-0.0211,-0.021,-0.0188,-0.0189,-0.019,-0.019,-0.0131,-0.0128,-0.0125,-0.0092,0,0,-0.0115,-0.0114,0,0,0,0,0,0,0,0,-0.0294,-0.0289,-0.0264,-0.0261,-0.0259,-0.0211,-0.0209,-0.0171,-0.0188,-0.0213,-0.019,-0.0191,-0.0158,-0.0153,-0.0136,-0.0089,-0.0086,-0.0115,-0.0113,-0.0112,-0.0111,0,0,0,0,0,0,0,-0.0297,-0.0292,-0.0251,-0.0263,-0.026,-0.0237,-0.0232,-0.0201,-0.0181,-0.0211,-0.0209,-0.0205,-0.0156,-0.0139,-0.0134,-0.0086,-0.0115,-0.0112,-0.011,-0.0109,0.0013,0.0014,0,0,0,0,0,0,-0.0311,-0.0295,-0.0253,-0.0249,-0.0281,-0.0236,-0.023,-0.0224,-0.0181,-0.0176,-0.0204,-0.0204,-0.0144,-0.0138,-0.0132,-0.007,-0.0112,-0.0109,-0.0107,0.0011,0.0013,0.0014,0,0,0,0,0,0,-0.0312,-0.0308,-0.0255,-0.0272,-0.0264,-0.0235,-0.0228,-0.0223,-0.0208,-0.0176,-0.0171,-0.0196,-0.0144,-0.0136,-0.0095,-0.0069,-0.0108,-0.0105,0.001,0.0012,0.0014,0.0041,0,0,0,0,0,0,-0.0314,-0.0309,-0.031,-0.0273,-0.0264,-0.0229,-0.0227,-0.0221,-0.0205,-0.0204,-0.0167,-0.0162,-0.0144,-0.01,-0.0092,-0.0065,-0.0102,0.0008,0.0011,0.0013,0.0038,0.0044,0.0048,0,0,0,0,0,-0.0316,-0.0317,-0.031,-0.0306,-0.0266,-0.0229,-0.0221,-0.0202,-0.0204,-0.0192,-0.0163,-0.0163,-0.0078,-0.0096,-0.0087,-0.0059,0.0007,0.001,0.0013,0.0036,0.0043,0.0048,0,0,0,0,0,0,-0.0343,-0.0313,-0.0306,-0.0298,-0.0267,-0.0226,-0.0217,-0.0202,-0.0169,-0.017,-0.0144,-0.0135,-0.009,-0.0077,-0.0098,-0.0015,-0.0036,-0.0031,-0.0021,-0.0015,-0.001,-0.0033,-0.01,0,0,0,0,0,-0.0349,-0.0342,-0.0306,-0.0299,-0.0285,-0.025,-0.0235,-0.0218,-0.0185,-0.0172,-0.0142,-0.0108,-0.0068,-0.0046,-0.0014,0.0033,0.0036,0.0057,0.0062,0.0066,0.0054,0.0089,0.0095,0.0025,0.0025,0.0025,0,0,-0.0361,-0.0342,-0.034,-0.0305,-0.028,-0.0249,-0.0242,-0.0217,-0.0186,-0.0169,-0.0122,-0.0092,-0.0053,0.0001,0.0022,0.0014,0.0092,0.007,0.0073,0.0058,0.0093,0.0099,0.0105,0.0027,0.0026,0.0026,0,0,-0.0367,-0.0358,-0.0348,-0.032,-0.0283,-0.0255,-0.0249,-0.0202,-0.0179,-0.0128,-0.0106,-0.006,-0.0002,0.0038,0.0064,0.0116,0.0114,0.0126,0.0139,0.0174,0.018,0.0185,0.021,0.0216,0.0133,0.0133,0.0133,0,-0.0383,-0.0366,-0.0339,-0.0313,-0.0299,-0.0258,-0.0239,-0.0195,-0.014,-0.0123,-0.0113,-0.0019,0.0018,0.0084,0.0108,0.0128,0.0136,0.0113,0.0179,0.0184,0.0189,0.0213,0.022,0.0135,0.0135,0.0135,0.0134,0,-0.0372,-0.036,-0.035,-0.0307,-0.028,-0.0261,-0.0202,-0.0169,-0.0139,-0.01,-0.0038,0.0024,0.0071,0.0105,0.0127,0.0184,0.0177,0.0177,0.0159,0.0197,0.0221,0.0228,0.0137,0.0137,0.0136,0.0136,0,0,-0.0411,-0.0358,-0.0356,-0.035,-0.0283,-0.0269,-0.0208,-0.0157,-0.0137,-0.0061,-0.0029,0.007,0.0088,0.0119,0.0159,0.0203,0.0261,0.0203,0.0204,0.0218,0.0327,0.0306,0.0312,0.0268,0.027,0.027,0.0334,0,-0.0417,-0.0397,-0.0355,-0.0334,-0.0325,-0.027,-0.0229,-0.0174,-0.012,-0.0072,0.0008,0.0056,0.0101,0.0121,0.0178,0.0237,0.0278,0.0242,0.0295,0.0297,0.0266,0.0319,0.0274,0.034,0.0341,0.0342,0.0343,0,-0.0417,-0.0414,-0.0403,-0.0379,-0.0371,-0.0344,-0.0302,-0.0256,-0.0165,-0.0125,-0.005,0.001,0.0106,0.0124,0.0251,0.0223,0.0271,0.0316,0.032,0.0289,0.0288,0.0292,0.0355,0.0354,0.0353,0.0353,0.0352,0,-0.0479,-0.0447,-0.0455,-0.0443,-0.0397,-0.0389,-0.0363,-0.0285,-0.0261,-0.0162,-0.0135,-0.0014,0.0041,0.0132,0.0252,0.0246,0.0372,0.0376,0.0402,0.0401,0.0385,0.0379,0.0443,0.0443,0.0443,0.0443,0.0443,0,-0.0504,-0.0511,-0.0494,-0.05,-0.0525,-0.0463,-0.0464,-0.0413,-0.0343,-0.0317,-0.0179,-0.0127,0.0042,0.0146,0.0241,0.035,0.0368,0.0407,0.0419,0.0398,0.0392,0.039,0.0383,0.0445,0.0445,0.0444,0.0444,0,-0.0552,-0.0535,-0.0556,-0.0546,-0.0552,-0.0572,-0.0551,-0.0547,-0.0461,-0.0418,-0.0389,-0.0213,-0.0066,0.0095,0.0254,0.0326,0.0434,0.0458,0.0424,0.0433,0.044,0.0434,0.0497,0.0497,0.0497,0.0496,0.0496,0,-0.0568,-0.0586,-0.0619,-0.0654,-0.0653,-0.0675,-0.0693,-0.0625,-0.0608,-0.0471,-0.0457,-0.029,-0.0165,0.0054,0.0225,0.0412,0.0427,0.048,0.0466,0.0442,0.0448,0.0442,0.0436,0.0496,0.0496,0.0496,0.0496,0,-0.0617,-0.0633,-0.0661,-0.0741,-0.0781,-0.0819,-0.0826,-0.082,-0.0725,-0.0652,-0.0513,-0.0347,-0.0178,0.0031,0.0183,0.0314,0.0453,0.0479,0.048,0.0468,0.0442,0.0446,0.0441,0.0496,0.0496,0.0496,0.0496,0,-0.0663,-0.0705,-0.0755,-0.0818,-0.0886,-0.0933,-0.0924,-0.0883,-0.0847,-0.0675,-0.0635,-0.0402,-0.0251,-0.0021,0.0119,0.0256,0.0282,0.031,0.032,0.0323,0.0258,0.0199,0.0193,0,0,0,0,0,-0.0702,-0.0754,-0.0828,-0.0894,-0.0964,-0.0996,-0.1001,-0.0969,-0.0873,-0.08,-0.071,-0.0544,-0.0271,-0.0128,-0.0002,0.0095,0.0288,0.0245,0.0319,0.0493,0.0494,0.0447,0,0,0,0,0,0,-0.0733,-0.0806,-0.0838,-0.0944,-0.1,-0.1069,-0.1074,-0.1011,-0.0947,-0.0824,-0.0681,-0.0542,-0.0284,-0.036,-0.0011,0.0041,0.0099,0.0395,0.0397,0.0493,0.0494,0.0494,0.0446,0,0,0,0,0]}]]